Weather Roundup
Issued by NWS

Home | Current Version | Previous Version | Graphics & Text | Print | Product List | Glossary Off
Versions: 1 2 3 4 5 6 7 8 9 10 11 12 13 14 15 16 17 18 19 20 21 22 23 24 25 26 27 28 29 30 31 32 33 34 35 36 37 38 39 40 41 42 43 44 45 46 47 48 49 50

000
NZUS93 KARX 250159
HRRWXR

CURRENT HOURLY OBSERVATIONS ACROSS
MUCH OF THE UPPER MISSISSIPPI VALLEY
NATIONAL WEATHER SERVICE LA CROSSE WI
800 PM CST SAT JAN 24 2015


...SOUTHEAST MINNESOTA...


CITY           SKY/WX    TMP DP  RH WIND       PRES   REMARKS
ROCHESTER      CLOUDY    34  31  88 SE3       29.59S
ROCHESTER/MAYO CLOUDY    35  31  85 E5        29.60S WCI  31
WINONA         CLOUDY    34  32  93 CALM      29.63S
AUSTIN         MOCLDY    34  30  86 CALM      29.58S
ALBERT LEA     MOCLDY    34  34 100 CALM      29.57F
DODGE CENTER   CLOUDY    34  34 100 CALM      29.59R
PRESTON        CLOUDY    33  32  94 CALM      29.60S
OWATONNA       CLOUDY    36  34  93 CALM      29.58F
FARIBAULT      CLOUDY    34  30  86 CALM      29.60R
$$

...ELSEWHERE IN MINNESOTA...


CITY           SKY/WX    TMP DP  RH WIND       PRES   REMARKS
MINNEAPOLIS    CLOUDY    38  30  73 CALM      29.61R
INTNL FALLS    CLEAR     11   4  73 NE7       29.81R WCI   0
DULUTH         CLOUDY    25  20  81 E22       29.70R WCI  10
RED WING       CLOUDY    32  28  86 CALM      29.62R
REDWOOD FALLS  CLOUDY    36  31  82 NW5       29.58S WCI  32
MANKATO        CLOUDY    36  30  80 N7        29.58S WCI  30
WORTHINGTON    CLOUDY    36  30  80 CALM      29.57F
FAIRMONT       CLOUDY    34  28  80 CALM      29.57S
$$

...SOUTHWEST WISCONSIN...


CITY           SKY/WX    TMP DP  RH WIND       PRES   REMARKS
LA CROSSE      CLOUDY    34  30  85 CALM      29.62F
PRAIRIE DU CHI CLOUDY    36  32  86 CALM      29.62F
BOSCOBEL       CLOUDY    33  29  85 CALM      29.63F
LONE ROCK      NOT AVBL
PLATTEVILLE    CLOUDY    36  34  91 S3        29.63S
FORT MC COY    CLOUDY    31  28  92 CALM      29.65S
VIROQUA        FAIR      34  32  91 CALM      29.61S
WIS DELLS      NOT AVBL
$$

...ELSEWHERE IN WISCONSIN...


CITY           SKY/WX    TMP DP  RH WIND       PRES   REMARKS
MILWAUKEE      CLOUDY    35  29  78 W6        29.68R WCI  30
MADISON        CLOUDY    31  28  89 CALM      29.66R
GREEN BAY      CLOUDY    29  25  85 NE22G30   29.69R WCI  15
EAU CLAIRE     NOT AVBL
BLACK RVR FLS  MOCLDY    28  28 100 CALM      29.63S
MEDFORD        CLOUDY    32  30  92 CALM      29.62R
WAUSAU         CLOUDY    34  30  85 CALM      29.62R
WIS RAPIDS     CLOUDY    31  28  89 CALM      29.66R
MARSHFIELD     CLOUDY    33  30  88 CALM      29.63R
RICE LAKE      CLOUDY    34  31  90 NE3       29.64S
$$

...NORTHEAST IOWA...


CITY           SKY/WX    TMP DP  RH WIND       PRES   REMARKS
DECORAH        CLOUDY    37  36  93 CALM      29.60S
MASON CITY     CLOUDY    34  32  92 CALM      29.59F
CHARLES CITY   CLOUDY    36  36 100 SW5       29.60S WCI  32
OELWEIN        CLOUDY    34  34 100 SW7       29.61F WCI  28
$$

...ELSEWHERE IN IOWA...


CITY           SKY/WX    TMP DP  RH WIND       PRES   REMARKS
DES MOINES     CLOUDY    44  29  55 SW7       29.62F
IOWA CITY      MOCLDY    34  30  85 CALM      29.65F
FORT DODGE     CLOUDY    39  32  75 SW8       29.59S WCI  34
$$

...NORTHERN ILLINOIS...


CITY           SKY/WX    TMP DP  RH WIND       PRES   REMARKS
CHICAGO-OHARE  MOCLDY    32  29  88 CALM      29.66F
CHICAGO-MIDWAY MOCLDY    35  31  85 SW6       29.67F WCI  30
MOLINE         CLOUDY    37  31  78 CALM      29.65S
ROCKFORD       CLOUDY    30  27  88 SE5       29.68R WCI  25
PEORIA         CLOUDY    39  33  79 S5        29.70S
$$

NOTE: "FAIR" INDICATES FEW OR NO CLOUDS BELOW 12,000 FEET WITH NO
SIGNIFICANT WEATHER AND/OR OBSTRUCTIONS TO VISIBILITY. WIND
SPEEDS ARE IN MILES-PER-HOUR.



USA.gov is the U.S. government's official web portal to all federal, state and local government web resources and services.